Terminal Aerodrome Forecast
Issued by NWS

Home | Current Version | Previous Version | Text Only | Print | Product List | Glossary Off
Versions: 1 2 3 4 5 6 7 8 9 10 11 12 13 14 15 16 17 18 19 20 21 22 23 24

000
FTUS42 KMHX 040740 AAC
TAFOAJ
TAF AMD
KOAJ 040740Z 0408/0506 18005KT P6SM SCT110
     FM040900 18005KT P6SM VCSH BKN050
     FM041200 19010KT 5SM SHRA OVC050
     FM042100 19010KT P6SM BKN050
     FM050100 21005KT P6SM SCT250
      AMD LTD TO CLD VIS AND WIND=

USA.gov is the U.S. government's official web portal to all federal, state and local government web resources and services.